Location: NJAA Observatory
(40.6819°N, 74.8979°W)
Time: 05:00:45
(UTC-04:00)

Iridium 84 - Visible Passes

Search period start: 27 April 2015 00:00
Search period end: 07 May 2015 00:00
Orbit: 776 x 779 km, 86.4° (Epoch: 26 April)

Date Brightness Start Highest point End Pass type
(mag) Time Alt. Az. Time Alt. Az. Time Alt. Az.
27 Apr 8.8 21:00:16 10° NW 21:02:22 12° WNW 21:04:10 10° W visible
28 Apr 8.3 20:25:05 10° NNW 20:29:07 22° W 20:33:01 10° SW visible
01 May 8.6 20:25:57 10° NW 20:29:05 16° W 20:31:58 10° WSW visible
04 May 9.2 20:27:56 10° WNW 20:29:01 10° WNW 20:29:44 10° W visible
